IRIDIUM 134 (43075 NORAD) Tracking and Keplerian Element Data

This shows tracking and keplerian element data for the satellite.

Feedback or suggestion? Click here.




ElementValue
Catalog43075
NameIRIDIUM 134
Epoch Orbit33811
Epoch Day159.71943341
Epoch Year2024
RAAN271.0592
Inclination86.3962
Eccentricity0.000219
Argument of Perigee100.5199
Mean Anonmoly259.6243
Mean Motion14.34219206
Decay Rate2.97E-06
L11 43075U 17083F 24159.71943341 .00000297 00000+0 98973-4 0 9998
L22 43075 86.3962 271.0592 0002190 100.5199 259.6243 14.34219206338117



Live tracking and technical data element details for IRIDIUM 134 (NORAD 43075). IRIDIUM 134 can be tracked NOW for your location showing map with azimuth and elevation plus other details from your city location.







IsCatalogInMostPopularTable: catalog: 43075, numindb: 658
Update: records affected: 1



GetName: 43075 IRIDIUM 134

Hit Count: updated at: Mon, 17 Jun 2024 23:15:42 GMT